Home > Weather > Punta Cana > Past weeks

Flag for Dominican Republic Weather for the Past 2 Weeks in Punta Cana, Dominican Republic

Now
79 °F

Passing clouds.


Feels Like: 82 °F
Forecast: 75 / 84 °F
Wind: 7 mph from Southeast

Location: Punta Cana

Current Time: May 3, 2016 at 1:37:51 AM

Latest Report: May 3, 2016 at 1:00 AM


Visibility: N/A

Pressure: 30.04 "Hg

Humidity: 79%

Dew Point: 72 °F

Location of Punta CanaLocation

Historic Weather in Punta Cana — Graph

°F

Punta Cana Temperature Yesterday

Maximum temperature yesterday: 84 °F (at 12:00 PM)
Minimum temperature yesterday: 77 °F (at 4:00 AM)
Average temperature yesterday: 80 °F

High & Low Weather Summary for the Past Weeks

 TemperatureHumidityPressure
High86 °F (Apr 23, 12:00 PM)100% (Apr 24, 2:00 AM)30.04 "Hg (Apr 24, 2:00 AM)
Low72 °F (Apr 18, 5:00 AM)55% (Apr 21, 1:00 PM)29.83 "Hg (Apr 24, 4:00 PM)
Average79 °F82%29.94 "Hg
* Reported Midnight between Apr 17 and Apr 18 — Midnight between May 2 and May 3, Punta Cana, Weather by CustomWeather, © 2016

Note: Actual official high and low records may vary slightly from our data, if they occured in-between our weather recording intervals... More about our weather records

Advertising

Punta Cana Weather History for the Previous 24 Hours

Scroll right to see more
 ConditionsComfort  
Time TempWeatherWind HumidityBarometerVisibility
12:00 AM
Tue, May 3
79 °FPassing clouds.3 mph79%30.04 "HgN/A
11:00 PM
Mon, May 2
79 °FPassing clouds.5 mph84%30.04 "HgN/A
10:00 PM77 °FPassing clouds.7 mph94%30.04 "HgN/A
9:00 PM79 °FPassing clouds.7 mph89%30.04 "HgN/A
8:00 PM79 °FPassing clouds.9 mph89%30.01 "HgN/A
7:00 PM81 °FPassing clouds.8 mph74%30.01 "HgN/A
6:00 PM81 °FPassing clouds.9 mph79%29.98 "HgN/A
5:00 PM82 °FPassing clouds.12 mph70%29.98 "HgN/A
4:00 PM82 °FScattered clouds.10 mph74%29.98 "HgN/A
3:00 PM82 °FScattered clouds.12 mph74%29.98 "HgN/A
2:00 PM82 °FScattered clouds.16 mph74%30.01 "HgN/A
1:00 PM84 °FPassing clouds.14 mph70%30.01 "HgN/A
12:00 PM84 °FPassing clouds.12 mph70%30.04 "HgN/A
11:00 AM82 °FPassing clouds.14 mph70%30.04 "HgN/A
10:00 AM82 °FPassing clouds.12 mph70%30.04 "HgN/A
9:00 AM81 °FScattered clouds.9 mph74%30.01 "HgN/A
8:00 AM79 °FScattered clouds.9 mph79%30.01 "HgN/A
7:00 AM79 °FScattered clouds.8 mph79%29.98 "HgN/A
6:00 AM77 °FPassing clouds.8 mph83%29.95 "HgN/A
5:00 AM77 °FPassing clouds.9 mph89%29.95 "HgN/A
4:00 AM77 °FPassing clouds.5 mph89%29.95 "HgN/A
3:00 AM79 °FPassing clouds.9 mph84%29.95 "HgN/A
2:00 AM79 °FPassing clouds.9 mph84%29.95 "HgN/A
1:00 AM79 °FPassing clouds.9 mph84%29.98 "HgN/A
Weather by CustomWeather, © 2016

See weather overviewHow to use our weather pages